Regional Weather Roundup
Issued by NWS Charleston, SC

Current Version | Previous Version | Graphics & Text | Print | Product List | Glossary On
Versions: 1 2 3 4 5 6 7 8 9 10 11 12 13 14 15 16 17 18 19 20 21 22 23 24 25 26 27 28 29 30 31 32 33 34 35 36 37 38 39 40 41 42 43 44 45 46 47 48 49 50
000
ASUS42 KCHS 251025
RWRCHS

REGIONAL WEATHER ROUNDUP
NATIONAL WEATHER SERVICE CHARLESTON SC
500 AM EST THU DEC 25 2014

NOTE: "FAIR" INDICATES FEW OR NO CLOUDS BELOW 12,000 FEET WITH NO
SIGNIFICANT WEATHER AND/OR OBSTRUCTIONS TO VISIBILITY.

NOT ALL STATIONS ARE QUALITY CONTROLLED BY THE NATIONAL
WEATHER SERVICE. USE DATA WITH CAUTION...ESPECIALLY
DEWPOINT OBSERVATIONS.

SCZ027-030-031-034>040-042>050-251100-
...SOUTHEAST SOUTH CAROLINA...

CITY           SKY/WX    TMP DP  RH WIND       PRES   REMARKS
N CHARLESTON   CLOUDY    55  44  66 W14G22    29.96R
WATERFRONT PRK   N/A     57 N/A N/A W9G17       N/A
MOUNT PLEASANT FAIR      57  46  67 W13G23    29.96R
PINOPOLIS        N/A     57  45  62 W18       29.86R
MONCKS CORNER  CLOUDY    55  43  62 W5        29.96R
SUMMERVILLE    CLOUDY    54  43  66 W10G17    29.98R
BEAUFORT MCAS  CLOUDY    55  48  77 W9        29.98R
BEAUFORT ARPT  CLOUDY    54  48  82 W12       29.98R
HILTON HEAD IS NOT AVBL
WALTERBORO     CLOUDY    54  39  58 W9        29.98R
ALLENDALE      FAIR      52  45  76 W8        29.99R

...SOUTHERN MIDLANDS AND PEE DEE...

CITY           SKY/WX    TMP DP  RH WIND       PRES   REMARKS
GEORGETOWN     NOT AVBL
KINGSTREE      NOT AVBL
ORANGEBURG     CLOUDY    52  40  63 W12       29.95R
BARNWELL       FAIR      52  45  76 W8        29.98R
AIKEN          FAIR      48  43  81 W10       30.00R
MANNING        CLOUDY    54  43  66 W6G16     29.94R
COLUMBIA       CLOUDY    51  40  65 W14       29.93R
SUMTER         CLOUDY    51  42  72 W12G22    29.90R
FLORENCE       CLOUDY    54  44  69 W16G24    29.88R
MYRTLE BEACH   CLOUDY    61  48  63 W21G26    29.89R
N MYRTLE BEACH CLOUDY    61  53  75 W10       29.86R

$$

GAZ063-065-086>088-099>101-113>116-118-119-134>141-150-251100-
...SOUTHEAST GEORGIA...

CITY           SKY/WX    TMP DP  RH WIND       PRES   REMARKS
SAVANNAH ARPT  CLOUDY    54  45  71 W8        30.00R
HUNTER AAF     CLOUDY    54  49  84 W14       29.98R
FORT STEWART   CLOUDY    53  44  72 W10       30.00R
STATESBORO     MOCLDY    51  48  89 W7        30.02R
SYLVANIA       PTSUNNY   52  47  82 W9        30.02R
CLAXTON        FAIR      52  46  82 W6        30.03R

...CSRA...CENTRAL AND FAR SOUTHEAST GEORGIA...

CITY           SKY/WX    TMP DP  RH WIND       PRES   REMARKS
THOMSON        CLOUDY    50  44  80 W8        30.04R
AUGUSTA-BUSH   CLOUDY    50  42  74 W8        29.97S
AUGUSTA-DANIEL CLOUDY    51  42  71 W8        29.97S
SWAINSBORO     FAIR      52  46  82 W8        30.03R
VIDALIA        MOCLDY    52  45  76 W5        30.03R
EASTMAN        FAIR      50  43  77 W7        30.08R
HAZLEHURST     FAIR      52  47  82 W7        30.05R
ALMA           MOCLDY    52  44  74 W9        30.04R
WAYCROSS       CLOUDY    56  50  81 NW9       30.04R
JESUP          CLOUDY    55  48  76 NW8       30.04R
BAXLEY         FAIR      54  45  71 NW9       30.04R
BRUNSWICK      CLOUDY    54  45  71 W6        30.04R
SAINT SIMONS   CLOUDY    54  45  71 W8        30.01R

$$

SCZ027-028-034-036>038-045-046-048>050-GAZ119-141-251100-
...LAKE AND SUPPLEMENTAL COASTAL OBSERVATIONS...

STATION/POSITION TIME  TEMP    WIND        PRES    WAVE   SWELL
                       AIR SEA DIR/SP/G            HT/PER HT/PER/DIR
                 (UTC) (F)     (DEG/KT/KT) (MB)    (FT/S) (FT/S/D)
UPR LAKE MARION  NOT AVBL
WINYAH BAY       1000   60     270/ 10     1011.0S
LAKE MURRAY      1000   51     250/ 14/ 18 1012.5S
ACE BASIN NERRS  NOT AVBL
FORT PULASKI     1000   55 56  280/ 16/ 21 1015.9R
SAPELO ISLAND    1000   54     290/  7     1016.0S

$$

ANZ835-935-AMZ111-154-330-350-352-354-370-450-454-472-251100-
...C-MAN AND BUOY OBSERVATIONS...

STATION/POSITION TIME  TEMP    WIND        PRES    WAVE   SWELL
                       AIR SEA DIR/SP/G            HT/PER HT/PER/DIR
                 (UTC) (F)     (DEG/KT/KT) (MB)    (FT/S) (FT/S/D)
BUOY 41004       1000   63 72  280/ 21/ 27 1011.9R   7/ 8
BUOY 41008       1000   56 59  300/ 19/ 23 1015.6R   4/ 4   2/140/ 7
FOLLY BEACH CMAN 1000   55     270/  7/ 10 1014.6R
CAPERS NEARSHORE 0900   59     290/ 14/ 17   N/A
FRIPP NEARSHORE  NOT AVBL


STATION/POSITION TIME  TEMP    WIND        PRES    WAVE   SWELL
                       AIR SEA DIR/SP/G            HT/PER HT/PER/DIR
                 (UTC) (F)     (DEG/KT/KT) (MB)    (FT/S) (FT/S/D)
5E ST. MARYS GA  1000      61                N/A     3/ 4
FRYING PAN BUOY  1000   68 71  240/ 25/ 31 1010.4R   7/ 8
BUOY 41025       1000   70                 1007.3R   8/ 9
CAPE LOOKOUT NC  1000   61     220/ 10/ 13 1008.4R
BUOY 41002       0932   75 72  210/ 23/ 27 1012.5F   8/ 7   2/ 50/16
BUOY 41010       1000   74 77  290/ 16/ 19 1015.6R   6/ 7   3/230/ 8
ST AUGUSTINE FL  1000   59     300/  9/ 11 1017.2R


$$


USA.gov is the U.S. government's official web portal to all federal, state and local government web resources and services.